Springfield, OH

3:25 AM EDT on April 28, 2017 (GMT -0400)
Springfield-Beckley Municipal

Weather History for KSGH - November, 2013

Change the Weather History Date:

Monday, November 25, 2013

  Actual Average (KFFO) Record (KFFO)
Temperature  
Mean Temperature 26 °F -  
Max Temperature 35 °F 47 °F 65 °F (2006)
Min Temperature 17 °F 31 °F 12 °F (2005)
Degree Days  
Heating Degree Days 39    
Moisture  
Dew Point 20 °F    
Average Humidity 73    
Maximum Humidity 96    
Minimum Humidity 44    
Precipitation  
Precipitation 0.00 in - - ()
Sea Level Pressure  
Sea Level Pressure 30.31 in    
Wind  
Wind Speed 8 mph (SSW)    
Max Wind Speed 20 mph    
Max Gust Speed 24 mph    
Visibility 6 miles    
Events Snow    
Averages and records for this station are not official NWS values.
T = Trace of Precipitation, MM = Missing Value Source: NWS Daily Summary

Daily Weather History Graph

Daily Weather History Graph

Search for Another Location

Airport or City:

Trip Planner

Search our weather history database for the weather conditions in past years. The results will help you decide how hot, cold, wet, or windy it might be!

Date:

Astronomy

Nov. 25, 2013 Rise Set
Actual Time 7:31 AM EST 5:13 PM EST
Civil Twilight 7:01 AM EST 5:42 PM EST
Nautical Twilight 6:28 AM EST 6:15 PM EST
Astronomical Twilight 5:56 AM EST 6:48 PM EST
Moon No Moon Rise 12:48 PM EST (11/25)
Length of Visible Light 10h 40m
Length of Day
9h 41m
Waning Gibbous, 51% of the Moon is Illuminated
Nov 25
Waning Gibbous
Nov 25
Last Quarter
Dec 2
New
Dec 9
First Quarter
Dec 17
Full

Hourly Weather History & Observations

Time (EST) Temp. Windchill Dew Point Humidity Pressure Visibility Wind Dir Wind Speed Gust Speed Precip Events Conditions
12:56 AM 17.1 °F 8.7 °F 12.0 °F 81% 30.54 in 8.0 mi South 5.8 mph - N/A   Clear
1:56 AM 17.1 °F 8.7 °F 12.0 °F 81% 30.53 in 8.0 mi South 5.8 mph - N/A   Clear
2:56 AM 18.1 °F 11.3 °F 12.0 °F 77% 30.51 in 8.0 mi South 4.6 mph - N/A   Clear
3:56 AM 19.0 °F 10.0 °F 12.0 °F 74% 30.49 in 8.0 mi South 6.9 mph - N/A   Clear
4:56 AM 19.0 °F 10.0 °F 13.1 °F 78% 30.48 in 8.0 mi South 6.9 mph - N/A   Clear
5:56 AM 20.1 °F 13.6 °F 13.1 °F 74% 30.47 in 8.0 mi SSW 4.6 mph - N/A   Clear
6:56 AM 19.0 °F 12.3 °F 13.1 °F 78% 30.45 in 8.0 mi SSE 4.6 mph - N/A   Clear
7:56 AM 19.0 °F 9.0 °F 14.0 °F 81% 30.43 in 7.0 mi SSE 8.1 mph - N/A   Partly Cloudy
8:56 AM 23.0 °F 11.7 °F 15.1 °F 72% 30.43 in 7.0 mi South 11.5 mph - N/A   Clear
9:56 AM 26.1 °F 15.6 °F 14.0 °F 60% 30.40 in 7.0 mi South 11.5 mph - N/A   Clear
10:56 AM 29.1 °F 18.9 °F 14.0 °F 53% 30.37 in 7.0 mi South 12.7 mph - N/A   Clear
11:56 AM 32.0 °F 24.2 °F 14.0 °F 48% 30.33 in 7.0 mi South 9.2 mph - N/A   Clear
12:56 PM 32.9 °F 24.7 °F 13.1 °F 44% 30.30 in 7.0 mi SSW 10.4 mph - N/A   Scattered Clouds
1:56 PM 32.9 °F 24.7 °F 14.0 °F 46% 30.28 in 7.0 mi SSW 10.4 mph - N/A   Mostly Cloudy
2:56 PM 34.0 °F 25.5 °F 14.0 °F 44% 30.27 in 7.0 mi SW 11.5 mph 20.7 mph N/A   Mostly Cloudy
3:56 PM 34.0 °F 28.0 °F 16.2 °F 48% 30.27 in 7.0 mi SW 6.9 mph - 0.00 in   Partly Cloudy
4:56 PM 34.0 °F 28.0 °F 17.1 °F 50% 30.27 in 7.0 mi SW 6.9 mph - N/A   Overcast
5:56 PM 34.0 °F 28.8 °F 18.1 °F 52% 30.27 in 9.0 mi SW 5.8 mph - N/A   Partly Cloudy
6:56 PM 34.9 °F 26.6 °F 18.1 °F 51% 30.26 in 8.0 mi SW 11.5 mph 24.2 mph N/A   Overcast
7:56 PM 34.9 °F 27.7 °F 21.0 °F 57% 30.25 in 8.0 mi SW 9.2 mph - 0.00 in   Mostly Cloudy
8:05 PM 35.6 °F 27.1 °F 21.2 °F 56% 30.21 in 8.0 mi SW 12.7 mph - N/A   Scattered Clouds
8:56 PM 34.9 °F 27.1 °F 23.0 °F 62% 30.25 in 8.0 mi SW 10.4 mph - 0.00 in   Mostly Cloudy
9:19 PM 33.8 °F 22.5 °F 26.6 °F 75% 30.21 in 2.5 mi SW 19.6 mph - 0.00 in Snow Light Snow
9:24 PM 33.8 °F 23.9 °F 26.6 °F 75% 30.21 in 1.2 mi SSW 15.0 mph - 0.00 in Snow Light Snow
9:29 PM 32.0 °F 22.1 °F 28.4 °F 87% 30.22 in 1.0 mi SW 13.8 mph - 0.00 in Snow Light Snow
9:38 PM 30.2 °F 20.2 °F 28.4 °F 93% 30.21 in 1.2 mi SW 12.7 mph - 0.00 in Snow Light Snow
9:40 PM 30.2 °F 20.8 °F 28.4 °F 93% 30.21 in 1.5 mi SW 11.5 mph - 0.00 in Snow Light Snow
9:56 PM 30.0 °F 20.5 °F 29.1 °F 96% 30.25 in 1.8 mi SSW 11.5 mph - 0.00 in Snow Light Snow
10:08 PM 30.2 °F 20.8 °F 28.4 °F 93% 30.22 in 1.2 mi SW 11.5 mph - 0.00 in Snow Light Snow
10:18 PM 30.2 °F 21.9 °F 28.4 °F 93% 30.21 in 2.0 mi SW 9.2 mph - 0.00 in Snow Light Snow
10:39 PM 30.2 °F 22.6 °F 28.4 °F 93% 30.21 in 2.0 mi SW 8.1 mph - 0.00 in Snow Light Snow
10:56 PM 30.0 °F 23.2 °F 29.1 °F 96% 30.23 in 3.0 mi SW 6.9 mph - 0.00 in Snow Light Snow
11:06 PM 30.2 °F 24.3 °F 28.4 °F 93% 30.20 in 2.5 mi SW 5.8 mph - 0.00 in Snow Light Snow
11:14 PM 30.2 °F 24.3 °F 28.4 °F 93% 30.20 in 4.0 mi SW 5.8 mph - 0.00 in Snow Light Snow
11:33 PM 30.2 °F 25.4 °F 28.4 °F 93% 30.19 in 6.0 mi SW 4.6 mph - 0.00 in Snow Light Snow
11:56 PM 30.0 °F - 29.1 °F 96% 30.22 in 2.5 mi Calm Calm - 0.00 in Snow Light Snow